Terminal Aerodrome Forecast
Issued by NWS

Home | Current Version | Previous Version | Text Only | Print | Product List | Glossary On
Versions: 1 2 3 4 5 6 7 8 9 10 11 12 13 14 15 16 17 18 19 20 21 22
026
FTUS46 KLOX 242345
TAFOXR
TAF
KOXR 242345Z 2500/2524 22007KT P6SM SKC
     FM250300 27006KT P6SM SCT007
     FM250700 VRB03KT 5SM BR BKN005
     FM251000 VRB03KT 2SM BR OVC005
     FM251600 24007KT 4SM BR BKN008
     FM251900 26010KT P6SM SKC=

USA.gov is the U.S. government's official web portal to all federal, state and local government web resources and services.